Regional Weather Roundup
Issued by NWS

Home | Current Version | Previous Version | Text Only | Print | Product List | Glossary On
Versions: 1 2 3 4 5 6 7 8 9 10 11 12 13 14 15 16 17 18 19 20 21 22 23 24 25 26 27 28 29 30 31 32 33 34 35 36 37 38 39 40 41 42 43 44 45 46 47 48 49 50
000
ASUS43 KDTX 041010
RWRMI
MICHIGAN HOURLY REGIONAL WEATHER ROUNDUP
NATIONAL WEATHER SERVICE DETROIT/PONTIAC MI
ISSUED BY NATIONAL WEATHER SERVICE GRAND RAPIDS MI
500 AM EST SUN DEC 04 2016

NOTE: "FAIR" INDICATES FEW OR NO CLOUDS BELOW 12,000 FEET WITH NO
SIGNIFICANT WEATHER AND/OR OBSTRUCTION TO VISIBILITY.

MIZ047>049-052>055-059>063-066>070-074>076-081>083-041100-
SOUTHEAST LOWER MICHIGAN

CITY           SKY/WX    TMP DP  RH WIND       PRES   REMARKS
ADRIAN         CLOUDY    33  28  81 CALM      30.26S
ALMA           CLOUDY    33  31  90 E3        30.25S
ANN ARBOR      CLOUDY    32  29  88 CALM      30.25S
BAD AXE        CLOUDY    33  31  91 CALM      30.25R
DETROIT CITY   CLOUDY    36  29  75 SW5       30.26S WCI  32
DETROIT        CLOUDY    35  28  75 SW5       30.26F WCI  31
FLINT          CLOUDY    34  29  82 CALM      30.25S
GROSSE ILE     CLOUDY    36  26  66 CALM      30.25S
HILLSDALE      CLOUDY    32  27  80 CALM      30.21F
HOWELL         CLOUDY    33  29  84 SW3       30.23F

CITY           SKY/WX    TMP DP  RH WIND       PRES   REMARKS
JACKSON        CLOUDY    33  24  69 S5        30.23F WCI  29
LANSING        CLOUDY    34  26  72 S5        30.24F WCI  30
MASON          CLOUDY    33  30  90 CALM      30.24F
MONROE         CLOUDY    35  30  83 SW3       30.26S
MT. CLEMENS    CLOUDY    36  30  79 SW5       30.23S WCI  32
PONTIAC        CLOUDY    34  28  79 CALM      30.23S
PORT HOPE        N/A     35  33  92 SW5       30.21F WCI  31
PORT HURON     CLOUDY    34  32  93 CALM      30.25S
TRI CITIES     CLOUDY    34  30  85 W7        30.25F WCI  28
YPSILANTI      CLOUDY    36  29  75 CALM      30.26S
$$
MIZ043>046-050>051-056>058-064>065-071>073-077>080-041100-
SOUTHWEST LOWER MICHIGAN

CITY           SKY/WX    TMP DP  RH WIND       PRES   REMARKS
BATTLE CREEK   CLOUDY    33  28  81 SE5       30.22F WCI  29
BENTON HARBOR  CLOUDY    34  25  69 S6        30.22F WCI  29
BIG RAPIDS     CLOUDY    33  27  76 CALM      30.21F
COLDWATER      CLOUDY    32  27  84 CALM      30.22F
HOLLAND        CLOUDY    34  27  75 S6        30.22F WCI  29
GRAND RAPIDS   CLOUDY    34  27  75 S5        30.24S WCI  30
KALAMAZOO      CLOUDY    33  26  75 CALM      30.22F
MARSHALL       CLOUDY    32  29  88 CALM      30.22F
MOUNT PLEASANT CLOUDY    33  28  81 CALM      30.23F
MUSKEGON       CLOUDY    35  29  78 E7        30.22F WCI  29
STURGIS        CLOUDY    32  28  84 CALM      30.21F
$$
MIZ016>042-041100-
NORTHERN LOWER MICHIGAN

CITY           SKY/WX    TMP DP  RH WIND       PRES   REMARKS
ALPENA         CLOUDY    34  31  88 NW3       30.23S
BEAVER ISLAND  DRIZZLE   35  33  92 CALM      30.20F
BELLAIRE       CLOUDY    33  32  96 S3        30.23S
CADILLAC       CLOUDY    31  26  83 S3        30.19F
CHARLEVOIX     CLOUDY    34  34 100 S3        30.24F FOG
GAYLORD        CLOUDY    32  29  88 SW3       30.19F
HOUGHTON LAKE  CLOUDY    32  28  85 SW6       30.22S WCI  26
MANISTEE       CLOUDY    32  28  85 E3        30.21F
OSCODA         CLOUDY    35  33  92 MISG      30.23S
PELLSTON       CLOUDY    34  32  92 SE3       30.21F
TRAVERSE CITY  CLOUDY    34  30  85 CALM      30.22S
LUDINGTON      CLOUDY    33  29  85 SE6       30.21F WCI  27
$$
MIZ007>008-015-041100-
EASTERN UPPER MICHIGAN

CITY           SKY/WX    TMP DP  RH WIND       PRES   REMARKS
KINROSS        CLOUDY    31  29  92 E9        30.22S WCI  23
MACKINAC ISLAN CLOUDY    36  32  86 S3        30.21F
NEWBERRY       CLOUDY    31  31  97 E7        30.17F WCI  25
S. S. MARIE    CLOUDY    32  25  75 E7        30.23R WCI  26
$$
MIZ004>006-011>014-085-041100-
CENTRAL UPPER MICHIGAN

CITY           SKY/WX    TMP DP  RH WIND       PRES   REMARKS
MANISTIQUE     CLOUDY    32  30  92 CALM      30.18F
ESCANABA       CLOUDY    30  24  78 W3        30.19F
MENOMINEE      CLOUDY    31  24  75 SW3       30.20F
SAWYER-GWINN   CLOUDY    29  25  83 S6        30.14F WCI  23
$$
MIZ001>003-009>011-084-041100-
WESTERN UPPER MICHIGAN

CITY           SKY/WX    TMP DP  RH WIND       PRES   REMARKS
IRON MOUNTAIN  CLOUDY    28  20  71 SW5       30.14F WCI  23
HOUGHTON       CLOUDY    30  24  78 CALM      30.12F
COPPER HARBOR    N/A     33  31  92 S3        30.14F
IRONWOOD       CLOUDY    26  22  84 SE3       30.10F
$$

ABBREVIATIONS USED IN REMARKS
   TC - TEMPERATURE IN CELSIUS
  WCI - WIND CHILL INDEX
   HX - HEAT INDEX
  VSB - VISIBILITY





USA.gov is the U.S. government's official web portal to all federal, state and local government web resources and services.